Location: Newark
(33.6333°S, 78.8500°W)
Time: 19:20:33
(UTC+00:00)

Tiros 1 despin weight - Pass Details

Date: 21 September 2019
Orbit: 593 x 643 km, 48.2° (Epoch: 22 October)

Event Time Altitude Azimuth Distance (km) Brightness Sun altitude
Rises 12:02:50 0° 237° (WSW) 2,960 ? 10.9°
Reaches altitude 10° 12:05:13 10° 241° (WSW) 2,049 ? 11.4°
Maximum altitude 12:09:49 52° 316° (NW) 805 ? 12.3°
Drops below altitude 10° 12:14:22 10° 32° (NNE) 2,030 ? 13.2°
Sets 12:16:44 0° 37° (NE) 2,930 ? 13.7°
